Time,TemperatureF,DewpointF,PressureIn,WindDirection,WindDirectionDegrees,WindSpeedMPH,WindSpeedGustMPH,Humidity,HourlyPrecipIn,Conditions,Clouds,dailyrainin,SolarRadiationWatts/m^2,SoftwareType,DateUTC
2013-05-05 00:01:00,52.6,42.7,30.18,SSW,195,0.0,0.0,69,0.00,,,0.00,0.00,VWS V14.01,2013-05-05 04:01:00,
2013-05-05 00:03:00,52.5,42.6,30.18,SSW,195,0.0,0.0,69,0.00,,,0.00,0.00,VWS V14.01,2013-05-05 04:03:00,
2013-05-05 00:04:00,52.3,42.5,30.18,SSW,195,0.0,0.0,69,0.00,,,0.00,0.00,VWS V14.01,2013-05-05 04:04:00,
2013-05-05 00:10:00,52.0,42.2,30.18,SSW,195,0.0,0.0,69,0.00,,,0.00,0.00,VWS V14.01,2013-05-05 04:10:00,
2013-05-05 00:15:00,51.5,41.7,30.18,SSW,195,0.0,0.0,69,0.00,,,0.00,0.00,VWS V14.01,2013-05-05 04:15:00,
2013-05-05 00:20:00,51.1,41.7,30.18,SSW,195,0.0,0.0,70,0.00,,,0.00,0.00,VWS V14.01,2013-05-05 04:20:00,
2013-05-05 00:25:00,50.7,41.7,30.18,SSW,195,0.0,0.0,71,0.00,,,0.00,0.00,VWS V14.01,2013-05-05 04:25:00,
2013-05-05 00:30:00,50.3,41.3,30.18,SSW,195,0.0,0.0,71,0.00,,,0.00,0.00,VWS V14.01,2013-05-05 04:30:00,
2013-05-05 00:35:00,49.9,41.2,30.18,SSW,195,0.0,0.0,72,0.00,,,0.00,0.00,VWS V14.01,2013-05-05 04:35:00,
2013-05-05 00:40:00,49.5,40.9,30.18,SSW,195,0.0,0.0,72,0.00,,,0.00,0.00,VWS V14.01,2013-05-05 04:40:00,
2013-05-05 00:45:00,49.1,40.8,30.18,SSW,195,0.0,0.0,73,0.00,,,0.00,0.00,VWS V14.01,2013-05-05 04:45:00,
2013-05-05 00:50:00,48.8,40.9,30.18,SSW,195,0.0,0.0,74,0.00,,,0.00,0.00,VWS V14.01,2013-05-05 04:50:00,
2013-05-05 00:55:00,48.6,41.0,30.18,SSW,195,0.0,0.0,75,0.00,,,0.00,0.00,VWS V14.01,2013-05-05 04:55:00,
2013-05-05 01:00:00,48.3,41.1,30.18,SSW,195,0.0,0.0,76,0.00,,,0.00,0.00,VWS V14.01,2013-05-05 05:00:00,
2013-05-05 01:06:00,48.0,40.8,30.18,SSW,195,0.0,0.0,76,0.00,,,0.00,0.00,VWS V14.01,2013-05-05 05:06:00,
2013-05-05 01:11:00,47.8,41.3,30.18,SSW,195,0.0,0.0,78,0.00,,,0.00,0.00,VWS V14.01,2013-05-05 05:11:00,
2013-05-05 01:16:00,47.6,41.4,30.18,SSW,195,0.0,0.0,79,0.00,,,0.00,0.00,VWS V14.01,2013-05-05 05:16:00,
2013-05-05 01:21:00,47.5,41.3,30.19,SSW,195,0.0,0.0,79,0.00,,,0.00,0.00,VWS V14.01,2013-05-05 05:21:00,
2013-05-05 01:26:00,47.4,41.2,30.18,SSW,195,0.0,0.0,79,0.00,,,0.00,0.00,VWS V14.01,2013-05-05 05:26:00,
2013-05-05 01:31:00,47.3,41.1,30.18,SSW,195,0.0,0.0,79,0.00,,,0.00,0.00,VWS V14.01,2013-05-05 05:31:00,
2013-05-05 01:36:00,47.2,41.4,30.18,SSW,195,0.0,0.0,80,0.00,,,0.00,0.00,VWS V14.01,2013-05-05 05:36:00,
2013-05-05 01:42:00,47.2,41.4,30.18,SSW,195,0.0,1.0,80,0.00,,,0.00,0.00,VWS V14.01,2013-05-05 05:42:00,
2013-05-05 01:47:00,47.1,41.3,30.18,SSW,192,0.0,0.0,80,0.00,,,0.00,0.00,VWS V14.01,2013-05-05 05:47:00,
2013-05-05 01:52:00,47.1,41.3,30.18,SSW,192,0.0,0.0,80,0.00,,,0.00,0.00,VWS V14.01,2013-05-05 05:52:00,
2013-05-05 01:57:00,47.0,41.2,30.18,SSW,192,0.0,0.0,80,0.00,,,0.00,0.00,VWS V14.01,2013-05-05 05:57:00,
2013-05-05 02:02:00,46.9,41.1,30.18,SSW,192,0.0,0.0,80,0.00,,,0.00,0.00,VWS V14.01,2013-05-05 06:02:00,
2013-05-05 02:07:00,46.9,41.1,30.18,SSW,192,0.0,0.0,80,0.00,,,0.00,0.00,VWS V14.01,2013-05-05 06:07:00,
2013-05-05 02:12:00,46.7,40.9,30.18,South,191,0.0,0.0,80,0.00,,,0.00,0.00,VWS V14.01,2013-05-05 06:12:00,
2013-05-05 02:17:00,46.6,40.8,30.18,South,191,0.0,0.0,80,0.00,,,0.00,0.00,VWS V14.01,2013-05-05 06:17:00,
2013-05-05 02:22:00,46.5,40.7,30.18,South,191,0.0,0.0,80,0.00,,,0.00,0.00,VWS V14.01,2013-05-05 06:22:00,
2013-05-05 02:27:00,46.4,40.6,30.18,South,191,0.0,0.0,80,0.00,,,0.00,0.00,VWS V14.01,2013-05-05 06:27:00,
2013-05-05 02:32:00,46.4,40.6,30.18,South,191,0.0,0.0,80,0.00,,,0.00,0.00,VWS V14.01,2013-05-05 06:32:00,
2013-05-05 02:38:00,46.3,40.5,30.17,South,191,0.0,0.0,80,0.00,,,0.00,0.00,VWS V14.01,2013-05-05 06:38:00,
2013-05-05 02:43:00,46.2,40.4,30.17,South,191,0.0,0.0,80,0.00,,,0.00,0.00,VWS V14.01,2013-05-05 06:43:00,
2013-05-05 02:48:00,46.2,40.7,30.17,South,172,0.0,1.0,81,0.00,,,0.00,0.00,VWS V14.01,2013-05-05 06:48:00,
2013-05-05 02:53:00,46.2,40.7,30.17,South,172,0.0,0.0,81,0.00,,,0.00,0.00,VWS V14.01,2013-05-05 06:53:00,
2013-05-05 02:58:00,46.2,40.7,30.17,South,172,0.0,0.0,81,0.00,,,0.00,0.00,VWS V14.01,2013-05-05 06:58:00,
2013-05-05 03:03:00,46.1,40.3,30.17,South,172,0.0,0.0,80,0.00,,,0.00,0.00,VWS V14.01,2013-05-05 07:03:00,
2013-05-05 03:08:00,46.0,40.2,30.17,South,172,0.0,0.0,80,0.00,,,0.00,0.00,VWS V14.01,2013-05-05 07:08:00,
2013-05-05 03:13:00,45.8,40.3,30.17,South,172,0.0,0.0,81,0.00,,,0.00,0.00,VWS V14.01,2013-05-05 07:13:00,
2013-05-05 03:18:00,45.6,40.1,30.17,South,172,0.0,0.0,81,0.00,,,0.00,0.00,VWS V14.01,2013-05-05 07:18:00,
2013-05-05 03:23:00,45.5,40.3,30.17,South,172,0.0,0.0,82,0.00,,,0.00,0.00,VWS V14.01,2013-05-05 07:23:00,
2013-05-05 03:28:00,45.5,40.3,30.18,South,172,0.0,0.0,82,0.00,,,0.00,0.00,VWS V14.01,2013-05-05 07:28:00,
2013-05-05 03:34:00,45.6,40.7,30.18,SSE,166,1.0,2.0,83,0.00,,,0.00,0.00,VWS V14.01,2013-05-05 07:34:00,
2013-05-05 03:39:00,45.6,40.7,30.17,SSE,166,0.0,1.0,83,0.00,,,0.00,0.00,VWS V14.01,2013-05-05 07:39:00,
2013-05-05 03:44:00,45.6,41.0,30.17,SSE,165,0.0,1.0,84,0.00,,,0.00,0.00,VWS V14.01,2013-05-05 07:44:00,
2013-05-05 03:49:00,45.7,41.2,30.17,SSE,160,0.0,2.0,84,0.00,,,0.00,0.00,VWS V14.01,2013-05-05 07:49:00,
2013-05-05 03:54:00,45.9,41.3,30.17,SSE,159,0.0,4.0,84,0.00,,,0.00,0.00,VWS V14.01,2013-05-05 07:54:00,
2013-05-05 03:59:00,46.0,41.4,30.17,SE,130,3.0,5.0,84,0.00,,,0.00,0.00,VWS V14.01,2013-05-05 07:59:00,
2013-05-05 04:04:00,46.2,41.6,30.17,SE,134,0.0,2.0,84,0.00,,,0.00,0.00,VWS V14.01,2013-05-05 08:04:00,
2013-05-05 04:09:00,46.4,41.8,30.17,SE,134,0.0,2.0,84,0.00,,,0.00,0.00,VWS V14.01,2013-05-05 08:09:00,
2013-05-05 04:14:00,46.6,42.0,30.18,SE,135,0.0,2.0,84,0.00,,,0.00,0.00,VWS V14.01,2013-05-05 08:14:00,
2013-05-05 04:19:00,46.7,41.8,30.18,SE,135,0.0,1.0,83,0.00,,,0.00,0.00,VWS V14.01,2013-05-05 08:19:00,
2013-05-05 04:24:00,46.7,41.8,30.18,SE,135,0.0,2.0,83,0.00,,,0.00,0.00,VWS V14.01,2013-05-05 08:24:00,
2013-05-05 04:29:00,46.7,41.8,30.18,SE,134,0.0,5.0,83,0.00,,,0.00,0.00,VWS V14.01,2013-05-05 08:29:00,
2013-05-05 04:34:00,46.7,41.8,30.18,SSE,149,0.0,4.0,83,0.00,,,0.00,0.00,VWS V14.01,2013-05-05 08:34:00,
2013-05-05 04:40:00,46.6,41.7,30.18,SSE,149,0.0,3.0,83,0.00,,,0.00,0.00,VWS V14.01,2013-05-05 08:40:00,
2013-05-05 04:45:00,46.5,41.6,30.18,SSE,149,0.0,1.0,83,0.00,,,0.00,0.00,VWS V14.01,2013-05-05 08:45:00,
2013-05-05 04:50:00,46.4,41.5,30.17,SSE,149,0.0,1.0,83,0.00,,,0.00,0.00,VWS V14.01,2013-05-05 08:50:00,
2013-05-05 04:55:00,46.2,41.3,30.17,SSE,149,0.0,0.0,83,0.00,,,0.00,0.00,VWS V14.01,2013-05-05 08:55:00,
2013-05-05 05:00:00,46.1,41.2,30.17,SSE,149,0.0,0.0,83,0.00,,,0.00,0.00,VWS V14.01,2013-05-05 09:00:00,
2013-05-05 05:05:00,45.9,41.0,30.17,SSE,149,0.0,0.0,83,0.00,,,0.00,0.00,VWS V14.01,2013-05-05 09:05:00,
2013-05-05 05:10:00,45.6,41.0,30.17,SSE,149,0.0,0.0,84,0.00,,,0.00,0.00,VWS V14.01,2013-05-05 09:10:00,
2013-05-05 05:15:00,45.4,40.5,30.17,SSE,149,0.0,0.0,83,0.00,,,0.00,0.00,VWS V14.01,2013-05-05 09:15:00,
2013-05-05 05:20:00,45.2,40.3,30.17,SSE,149,0.0,0.0,83,0.00,,,0.00,0.00,VWS V14.01,2013-05-05 09:20:00,
2013-05-05 05:25:00,45.0,40.5,30.18,SE,145,0.0,3.0,84,0.00,,,0.00,0.00,VWS V14.01,2013-05-05 09:25:00,
2013-05-05 05:30:00,44.9,40.7,30.18,SE,145,0.0,1.0,85,0.00,,,0.00,0.00,VWS V14.01,2013-05-05 09:30:00,
2013-05-05 05:35:00,44.8,40.9,30.18,SE,145,0.0,0.0,86,0.00,,,0.00,0.00,VWS V14.01,2013-05-05 09:35:00,
2013-05-05 05:40:00,44.9,41.0,30.17,SE,144,0.0,0.0,86,0.00,,,0.00,0.00,VWS V14.01,2013-05-05 09:40:00,
2013-05-05 05:45:00,45.0,41.1,30.18,SE,144,0.0,0.0,86,0.00,,,0.00,0.00,VWS V14.01,2013-05-05 09:45:00,
2013-05-05 05:50:00,45.0,41.1,30.18,SE,144,0.0,0.0,86,0.00,,,0.00,0.00,VWS V14.01,2013-05-05 09:50:00,
2013-05-05 05:56:00,45.0,41.1,30.18,SE,144,0.0,0.0,86,0.00,,,0.00,0.00,VWS V14.01,2013-05-05 09:56:00,
2013-05-05 06:01:00,44.9,41.0,30.19,SE,144,0.0,0.0,86,0.00,,,0.00,0.00,VWS V14.01,2013-05-05 10:01:00,
2013-05-05 06:06:00,44.8,40.9,30.19,SE,144,0.0,4.0,86,0.00,,,0.00,0.00,VWS V14.01,2013-05-05 10:06:00,
2013-05-05 06:11:00,44.7,41.1,30.19,SE,144,0.0,0.0,87,0.00,,,0.00,7.00,VWS V14.01,2013-05-05 10:11:00,
2013-05-05 06:16:00,44.6,40.7,30.19,SE,144,0.0,0.0,86,0.00,,,0.00,11.00,VWS V14.01,2013-05-05 10:16:00,
2013-05-05 06:21:00,44.5,40.6,30.19,SE,140,0.0,4.0,86,0.00,,,0.00,12.00,VWS V14.01,2013-05-05 10:21:00,
2013-05-05 06:26:00,44.3,40.4,30.19,SE,145,0.0,1.0,86,0.00,,,0.00,16.00,VWS V14.01,2013-05-05 10:26:00,
2013-05-05 06:31:00,44.2,40.6,30.20,SSE,166,0.0,1.0,87,0.00,,,0.00,19.00,VWS V14.01,2013-05-05 10:31:00,
2013-05-05 06:36:00,44.1,40.5,30.20,SE,142,0.0,1.0,87,0.00,,,0.00,21.00,VWS V14.01,2013-05-05 10:36:00,
2013-05-05 06:41:00,44.0,40.4,30.20,SSE,150,0.0,0.0,87,0.00,,,0.00,23.00,VWS V14.01,2013-05-05 10:41:00,
2013-05-05 06:46:00,44.0,40.4,30.20,SSE,150,0.0,0.0,87,0.00,,,0.00,25.00,VWS V14.01,2013-05-05 10:46:00,
2013-05-05 06:52:00,44.0,40.4,30.20,SSE,150,0.0,0.0,87,0.00,,,0.00,28.00,VWS V14.01,2013-05-05 10:52:00,
2013-05-05 06:57:00,43.9,40.3,30.20,SSE,150,0.0,0.0,87,0.00,,,0.00,32.00,VWS V14.01,2013-05-05 10:57:00,
2013-05-05 07:02:00,43.8,40.2,30.20,SSE,150,0.0,0.0,87,0.00,,,0.00,37.00,VWS V14.01,2013-05-05 11:02:00,
2013-05-05 07:07:00,43.8,40.2,30.20,East,98,0.0,0.0,87,0.00,,,0.00,44.00,VWS V14.01,2013-05-05 11:07:00,
2013-05-05 07:12:00,43.8,40.5,30.20,SSE,159,0.0,1.0,88,0.00,,,0.00,51.00,VWS V14.01,2013-05-05 11:12:00,
2013-05-05 07:17:00,43.9,40.6,30.20,South,173,0.0,1.0,88,0.00,,,0.00,121.00,VWS V14.01,2013-05-05 11:17:00,
2013-05-05 07:22:00,44.2,40.9,30.20,SSE,166,1.0,3.0,88,0.00,,,0.00,135.00,VWS V14.01,2013-05-05 11:22:00,
2013-05-05 07:27:00,44.5,41.2,30.20,SE,136,0.0,1.0,88,0.00,,,0.00,148.00,VWS V14.01,2013-05-05 11:27:00,
2013-05-05 07:32:00,45.0,41.7,30.20,NE,56,0.0,3.0,88,0.00,,,0.00,153.00,VWS V14.01,2013-05-05 11:32:00,
2013-05-05 07:37:00,45.2,41.6,30.20,NNE,18,0.0,1.0,87,0.00,,,0.00,146.00,VWS V14.01,2013-05-05 11:37:00,
2013-05-05 07:42:00,45.6,41.7,30.19,SE,125,0.0,5.0,86,0.00,,,0.00,146.00,VWS V14.01,2013-05-05 11:42:00,
2013-05-05 07:47:00,45.9,41.7,30.19,NE,56,3.0,4.0,85,0.00,,,0.00,149.00,VWS V14.01,2013-05-05 11:47:00,
2013-05-05 07:53:00,46.2,41.6,30.19,NE,49,0.0,5.0,84,0.00,,,0.00,139.00,VWS V14.01,2013-05-05 11:53:00,
2013-05-05 07:58:00,46.4,41.8,30.20,ESE,115,0.0,1.0,84,0.00,,,0.00,153.00,VWS V14.01,2013-05-05 11:58:00,
2013-05-05 08:03:00,46.7,41.8,30.20,ESE,118,3.0,3.0,83,0.00,,,0.00,183.00,VWS V14.01,2013-05-05 12:03:00,
2013-05-05 08:08:00,46.9,42.0,30.20,SE,125,0.0,5.0,83,0.00,,,0.00,272.00,VWS V14.01,2013-05-05 12:08:00,
2013-05-05 08:13:00,47.3,42.1,30.20,SE,136,0.0,3.0,82,0.00,,,0.00,199.00,VWS V14.01,2013-05-05 12:13:00,
2013-05-05 08:18:00,47.7,42.5,30.20,ESE,123,1.0,1.0,82,0.00,,,0.00,332.00,VWS V14.01,2013-05-05 12:18:00,
2013-05-05 08:23:00,48.2,42.7,30.20,SSE,149,0.0,7.0,81,0.00,,,0.00,230.00,VWS V14.01,2013-05-05 12:23:00,
2013-05-05 08:28:00,48.3,42.8,30.21,SE,128,4.0,7.0,81,0.00,,,0.00,218.00,VWS V14.01,2013-05-05 12:28:00,
2013-05-05 08:33:00,48.5,42.6,30.21,SSE,168,6.0,7.0,80,0.00,,,0.00,258.00,VWS V14.01,2013-05-05 12:33:00,
2013-05-05 08:38:00,48.6,42.4,30.21,ESE,123,0.0,7.0,79,0.00,,,0.00,237.00,VWS V14.01,2013-05-05 12:38:00,
2013-05-05 08:43:00,48.7,42.2,30.21,ESE,109,0.0,10.0,78,0.00,,,0.00,207.00,VWS V14.01,2013-05-05 12:43:00,
2013-05-05 08:48:00,48.5,41.6,30.21,SSE,150,5.0,5.0,77,0.00,,,0.00,148.00,VWS V14.01,2013-05-05 12:48:00,
2013-05-05 08:54:00,48.5,42.0,30.21,SE,146,0.0,2.0,78,0.00,,,0.00,135.00,VWS V14.01,2013-05-05 12:54:00,
2013-05-05 08:59:00,48.4,41.9,30.21,SE,136,4.0,7.0,78,0.00,,,0.00,220.00,VWS V14.01,2013-05-05 12:59:00,
2013-05-05 09:04:00,48.5,42.0,30.21,SE,140,1.0,5.0,78,0.00,,,0.00,211.00,VWS V14.01,2013-05-05 13:04:00,
2013-05-05 09:09:00,48.6,42.1,30.21,SE,126,4.0,6.0,78,0.00,,,0.00,348.00,VWS V14.01,2013-05-05 13:09:00,
2013-05-05 09:14:00,48.9,42.3,30.21,SE,138,2.0,6.0,78,0.00,,,0.00,429.00,VWS V14.01,2013-05-05 13:14:00,
2013-05-05 09:19:00,49.1,41.9,30.21,South,172,3.0,4.0,76,0.00,,,0.00,483.00,VWS V14.01,2013-05-05 13:19:00,
2013-05-05 09:24:00,49.3,42.1,30.21,SE,142,4.0,6.0,76,0.00,,,0.00,311.00,VWS V14.01,2013-05-05 13:24:00,
2013-05-05 09:29:00,49.6,42.0,30.21,SE,146,4.0,6.0,75,0.00,,,0.00,308.00,VWS V14.01,2013-05-05 13:29:00,
2013-05-05 09:34:00,49.7,41.8,30.21,SSW,205,5.0,6.0,74,0.00,,,0.00,311.00,VWS V14.01,2013-05-05 13:34:00,
2013-05-05 09:39:00,49.6,41.7,30.21,SSE,153,2.0,3.0,74,0.00,,,0.00,323.00,VWS V14.01,2013-05-05 13:39:00,
2013-05-05 09:45:00,49.5,41.6,30.21,SSE,165,0.0,6.0,74,0.00,,,0.00,253.00,VWS V14.01,2013-05-05 13:45:00,
2013-05-05 09:50:00,49.3,41.7,30.21,SSE,164,0.0,8.0,75,0.00,,,0.00,287.00,VWS V14.01,2013-05-05 13:50:00,
2013-05-05 09:55:00,49.2,42.0,30.21,SE,140,0.0,6.0,76,0.00,,,0.00,287.00,VWS V14.01,2013-05-05 13:55:00,
2013-05-05 10:00:00,49.7,42.5,30.20,SE,140,0.0,5.0,76,0.00,,,0.00,297.00,VWS V14.01,2013-05-05 14:00:00,
2013-05-05 10:05:00,50.4,42.8,30.21,SSW,203,7.0,8.0,75,0.00,,,0.00,722.00,VWS V14.01,2013-05-05 14:05:00,
2013-05-05 10:10:00,50.8,42.5,30.20,SSE,150,4.0,11.0,73,0.00,,,0.00,671.00,VWS V14.01,2013-05-05 14:10:00,
2013-05-05 10:15:00,51.3,43.7,30.20,ESE,118,5.0,8.0,75,0.00,,,0.00,768.00,VWS V14.01,2013-05-05 14:15:00,
2013-05-05 10:20:00,51.8,43.1,30.21,SSE,158,3.0,4.0,72,0.00,,,0.00,668.00,VWS V14.01,2013-05-05 14:20:00,
2013-05-05 10:25:00,51.7,42.2,30.21,ENE,73,2.0,3.0,70,0.00,,,0.00,475.00,VWS V14.01,2013-05-05 14:25:00,
2013-05-05 10:30:00,51.7,42.6,30.20,SSE,159,1.0,6.0,71,0.00,,,0.00,661.00,VWS V14.01,2013-05-05 14:30:00,
2013-05-05 10:36:00,52.0,42.5,30.21,SSE,148,1.0,4.0,70,0.00,,,0.00,703.00,VWS V14.01,2013-05-05 14:36:00,
2013-05-05 10:41:00,52.1,42.6,30.21,SE,145,6.0,6.0,70,0.00,,,0.00,640.00,VWS V14.01,2013-05-05 14:41:00,
2013-05-05 10:46:00,51.7,41.9,30.21,SSE,150,6.0,6.0,69,0.00,,,0.00,628.00,VWS V14.01,2013-05-05 14:46:00,
2013-05-05 10:51:00,51.4,41.6,30.21,SE,125,4.0,5.0,69,0.00,,,0.00,633.00,VWS V14.01,2013-05-05 14:51:00,
2013-05-05 10:56:00,51.4,42.0,30.20,SW,221,3.0,3.0,70,0.00,,,0.00,668.00,VWS V14.01,2013-05-05 14:56:00,
2013-05-05 11:01:00,51.7,42.2,30.20,SSE,157,5.0,5.0,70,0.00,,,0.00,728.00,VWS V14.01,2013-05-05 15:01:00,
2013-05-05 11:06:00,51.9,42.1,30.20,SSE,163,3.0,7.0,69,0.00,,,0.00,698.00,VWS V14.01,2013-05-05 15:06:00,
2013-05-05 11:11:00,52.3,42.1,30.20,SE,141,4.0,10.0,68,0.00,,,0.00,733.00,VWS V14.01,2013-05-05 15:11:00,
2013-05-05 11:17:00,52.5,42.3,30.20,SSE,157,4.0,6.0,68,0.00,,,0.00,710.00,VWS V14.01,2013-05-05 15:17:00,
2013-05-05 11:22:00,52.7,42.1,30.20,South,182,4.0,8.0,67,0.00,,,0.00,744.00,VWS V14.01,2013-05-05 15:22:00,
2013-05-05 11:27:00,52.9,41.9,30.20,SSE,155,0.0,6.0,66,0.00,,,0.00,724.00,VWS V14.01,2013-05-05 15:27:00,
2013-05-05 11:32:00,53.6,43.3,30.20,SE,144,3.0,9.0,68,0.00,,,0.00,712.00,VWS V14.01,2013-05-05 15:32:00,
2013-05-05 11:37:00,53.8,42.3,30.19,SE,138,1.0,7.0,65,0.00,,,0.00,689.00,VWS V14.01,2013-05-05 15:37:00,
2013-05-05 11:42:00,54.3,43.6,30.19,SE,144,7.0,10.0,67,0.00,,,0.00,677.00,VWS V14.01,2013-05-05 15:42:00,
2013-05-05 11:47:00,54.2,43.1,30.19,South,169,10.0,12.0,66,0.00,,,0.00,671.00,VWS V14.01,2013-05-05 15:47:00,
2013-05-05 11:52:00,54.3,44.0,30.19,SSE,157,2.0,5.0,68,0.00,,,0.00,680.00,VWS V14.01,2013-05-05 15:52:00,
2013-05-05 11:57:00,54.6,43.9,30.19,South,186,5.0,7.0,67,0.00,,,0.00,696.00,VWS V14.01,2013-05-05 15:57:00,
2013-05-05 12:02:00,54.6,42.7,30.18,SE,140,4.0,6.0,64,0.00,,,0.00,735.00,VWS V14.01,2013-05-05 16:02:00,
2013-05-05 12:08:00,55.1,44.7,30.18,SE,134,3.0,5.0,68,0.00,,,0.00,745.00,VWS V14.01,2013-05-05 16:08:00,
2013-05-05 12:13:00,55.2,43.2,30.18,SSE,148,0.0,5.0,64,0.00,,,0.00,856.00,VWS V14.01,2013-05-05 16:13:00,
2013-05-05 12:18:00,55.8,43.8,30.18,ESE,104,3.0,8.0,64,0.00,,,0.00,875.00,VWS V14.01,2013-05-05 16:18:00,
2013-05-05 12:23:00,56.8,43.9,30.18,East,88,2.0,6.0,62,0.00,,,0.00,868.00,VWS V14.01,2013-05-05 16:23:00,
2013-05-05 12:28:00,57.1,44.2,30.17,SE,132,3.0,3.0,62,0.00,,,0.00,856.00,VWS V14.01,2013-05-05 16:28:00,
2013-05-05 12:33:00,57.2,46.8,30.17,NE,40,3.0,8.0,68,0.00,,,0.00,868.00,VWS V14.01,2013-05-05 16:33:00,
2013-05-05 12:38:00,57.7,45.2,30.17,SE,142,6.0,8.0,63,0.00,,,0.00,889.00,VWS V14.01,2013-05-05 16:38:00,
2013-05-05 12:43:00,57.5,44.6,30.17,South,178,1.0,4.0,62,0.00,,,0.00,912.00,VWS V14.01,2013-05-05 16:43:00,
2013-05-05 12:48:00,58.0,45.5,30.17,SSE,153,0.0,9.0,63,0.00,,,0.00,925.00,VWS V14.01,2013-05-05 16:48:00,
2013-05-05 12:54:00,58.6,45.6,30.17,SE,133,0.0,5.0,62,0.00,,,0.00,921.00,VWS V14.01,2013-05-05 16:54:00,
2013-05-05 12:59:00,58.5,44.7,30.17,ENE,76,0.0,9.0,60,0.00,,,0.00,926.00,VWS V14.01,2013-05-05 16:59:00,
2013-05-05 13:04:00,59.0,45.6,30.16,ENE,74,1.0,6.0,61,0.00,,,0.00,921.00,VWS V14.01,2013-05-05 17:04:00,
2013-05-05 13:09:00,59.0,45.2,30.16,ESE,115,4.0,9.0,60,0.00,,,0.00,933.00,VWS V14.01,2013-05-05 17:09:00,
2013-05-05 13:14:00,59.0,43.8,30.17,SE,129,2.0,11.0,57,0.00,,,0.00,933.00,VWS V14.01,2013-05-05 17:14:00,
2013-05-05 13:19:00,59.0,45.2,30.16,ESE,111,1.0,7.0,60,0.00,,,0.00,944.00,VWS V14.01,2013-05-05 17:19:00,
2013-05-05 13:24:00,59.8,46.8,30.16,ESE,115,2.0,3.0,62,0.00,,,0.00,933.00,VWS V14.01,2013-05-05 17:24:00,
2013-05-05 13:29:00,59.9,44.2,30.16,South,184,0.0,6.0,56,0.00,,,0.00,932.00,VWS V14.01,2013-05-05 17:29:00,
2013-05-05 13:34:00,60.2,45.8,30.16,ESE,123,10.0,10.0,59,0.00,,,0.00,930.00,VWS V14.01,2013-05-05 17:34:00,
2013-05-05 13:39:00,60.1,44.4,30.16,South,180,2.0,6.0,56,0.00,,,0.00,933.00,VWS V14.01,2013-05-05 17:39:00,
2013-05-05 13:45:00,60.0,45.7,30.15,NNE,17,2.0,5.0,59,0.00,,,0.00,926.00,VWS V14.01,2013-05-05 17:45:00,
2013-05-05 13:50:00,60.4,46.5,30.16,East,96,2.0,11.0,60,0.00,,,0.00,923.00,VWS V14.01,2013-05-05 17:50:00,
2013-05-05 13:55:00,61.2,48.1,30.15,NE,51,2.0,8.0,62,0.00,,,0.00,923.00,VWS V14.01,2013-05-05 17:55:00,
2013-05-05 14:00:00,61.2,46.3,30.15,North,360,0.0,6.0,58,0.00,,,0.00,918.00,VWS V14.01,2013-05-05 18:00:00,
2013-05-05 14:05:00,61.3,46.0,30.15,East,86,1.0,8.0,57,0.00,,,0.00,916.00,VWS V14.01,2013-05-05 18:05:00,
2013-05-05 14:10:00,62.0,46.6,30.15,ENE,69,0.0,8.0,57,0.00,,,0.00,909.00,VWS V14.01,2013-05-05 18:10:00,
2013-05-05 14:15:00,62.3,46.4,30.15,NE,55,3.0,7.0,56,0.00,,,0.00,912.00,VWS V14.01,2013-05-05 18:15:00,
2013-05-05 14:20:00,62.3,45.5,30.14,SSE,161,0.0,8.0,54,0.00,,,0.00,905.00,VWS V14.01,2013-05-05 18:20:00,
2013-05-05 14:25:00,62.7,46.8,30.15,ENE,74,0.0,7.0,56,0.00,,,0.00,900.00,VWS V14.01,2013-05-05 18:25:00,
2013-05-05 14:30:00,62.8,46.9,30.14,SSE,153,1.0,5.0,56,0.00,,,0.00,909.00,VWS V14.01,2013-05-05 18:30:00,
2013-05-05 14:35:00,63.2,47.7,30.14,SE,137,1.0,8.0,57,0.00,,,0.00,900.00,VWS V14.01,2013-05-05 18:35:00,
2013-05-05 14:40:00,63.1,47.2,30.14,ESE,115,2.0,8.0,56,0.00,,,0.00,896.00,VWS V14.01,2013-05-05 18:40:00,
2013-05-05 14:45:00,62.9,45.0,30.14,South,182,2.0,8.0,52,0.00,,,0.00,856.00,VWS V14.01,2013-05-05 18:45:00,
2013-05-05 14:50:00,62.6,45.2,30.14,SSE,150,4.0,13.0,53,0.00,,,0.00,738.00,VWS V14.01,2013-05-05 18:50:00,
2013-05-05 14:55:00,62.5,45.2,30.14,SSW,210,7.0,8.0,53,0.00,,,0.00,756.00,VWS V14.01,2013-05-05 18:55:00,
2013-05-05 15:00:00,62.7,45.8,30.14,SE,141,1.0,8.0,54,0.00,,,0.00,814.00,VWS V14.01,2013-05-05 19:00:00,
2013-05-05 15:05:00,63.1,46.2,30.13,SSE,148,0.0,12.0,54,0.00,,,0.00,754.00,VWS V14.01,2013-05-05 19:05:00,
2013-05-05 15:10:00,63.4,45.0,30.13,South,183,4.0,8.0,51,0.00,,,0.00,803.00,VWS V14.01,2013-05-05 19:10:00,
2013-05-05 15:15:00,63.5,45.6,30.13,SSE,155,5.0,10.0,52,0.00,,,0.00,810.00,VWS V14.01,2013-05-05 19:15:00,
2013-05-05 15:20:00,63.8,47.3,30.13,SE,135,0.0,7.0,55,0.00,,,0.00,831.00,VWS V14.01,2013-05-05 19:20:00,
2013-05-05 15:25:00,64.8,46.8,30.12,South,169,2.0,2.0,52,0.00,,,0.00,817.00,VWS V14.01,2013-05-05 19:25:00,
2013-05-05 15:30:00,64.9,46.4,30.12,SE,141,2.0,5.0,51,0.00,,,0.00,802.00,VWS V14.01,2013-05-05 19:30:00,
2013-05-05 15:36:00,65.2,46.6,30.12,ESE,110,2.0,6.0,51,0.00,,,0.00,800.00,VWS V14.01,2013-05-05 19:36:00,
2013-05-05 15:41:00,65.1,46.0,30.12,SSE,149,5.0,5.0,50,0.00,,,0.00,788.00,VWS V14.01,2013-05-05 19:41:00,
2013-05-05 15:46:00,65.2,47.7,30.11,ESE,119,0.0,5.0,53,0.00,,,0.00,770.00,VWS V14.01,2013-05-05 19:46:00,
2013-05-05 15:51:00,65.3,45.7,30.11,SE,141,3.0,7.0,49,0.00,,,0.00,773.00,VWS V14.01,2013-05-05 19:51:00,
2013-05-05 15:56:00,65.2,46.6,30.11,SE,127,4.0,4.0,51,0.00,,,0.00,756.00,VWS V14.01,2013-05-05 19:56:00,
2013-05-05 16:01:00,65.3,47.2,30.11,SE,137,6.0,10.0,52,0.00,,,0.00,745.00,VWS V14.01,2013-05-05 20:01:00,
2013-05-05 16:06:00,65.3,47.8,30.11,SSE,148,1.0,2.0,53,0.00,,,0.00,729.00,VWS V14.01,2013-05-05 20:06:00,
2013-05-05 16:11:00,65.4,44.7,30.11,SSE,163,3.0,5.0,47,0.00,,,0.00,715.00,VWS V14.01,2013-05-05 20:11:00,
2013-05-05 16:16:00,65.3,46.7,30.11,ESE,121,5.0,7.0,51,0.00,,,0.00,691.00,VWS V14.01,2013-05-05 20:16:00,
2013-05-05 16:21:00,65.3,45.7,30.11,SE,128,9.0,9.0,49,0.00,,,0.00,700.00,VWS V14.01,2013-05-05 20:21:00,
2013-05-05 16:26:00,65.3,47.2,30.11,SE,146,6.0,10.0,52,0.00,,,0.00,679.00,VWS V14.01,2013-05-05 20:26:00,
2013-05-05 16:31:00,65.3,46.7,30.11,NNE,13,2.0,3.0,51,0.00,,,0.00,668.00,VWS V14.01,2013-05-05 20:31:00,
2013-05-05 16:37:00,65.6,46.5,30.11,SE,129,4.0,8.0,50,0.00,,,0.00,645.00,VWS V14.01,2013-05-05 20:37:00,
2013-05-05 16:42:00,65.5,46.4,30.10,ESE,109,5.0,8.0,50,0.00,,,0.00,603.00,VWS V14.01,2013-05-05 20:42:00,
2013-05-05 16:47:00,65.2,45.6,30.10,SE,140,1.0,7.0,49,0.00,,,0.00,599.00,VWS V14.01,2013-05-05 20:47:00,
2013-05-05 16:52:00,65.3,47.2,30.10,SSE,167,5.0,6.0,52,0.00,,,0.00,621.00,VWS V14.01,2013-05-05 20:52:00,
2013-05-05 16:57:00,65.5,46.9,30.10,SE,131,0.0,8.0,51,0.00,,,0.00,575.00,VWS V14.01,2013-05-05 20:57:00,
2013-05-05 17:02:00,65.7,46.6,30.10,SE,137,1.0,6.0,50,0.00,,,0.00,594.00,VWS V14.01,2013-05-05 21:02:00,
2013-05-05 17:07:00,66.0,46.8,30.10,SSE,157,1.0,3.0,50,0.00,,,0.00,559.00,VWS V14.01,2013-05-05 21:07:00,
2013-05-05 17:12:00,66.1,46.4,30.10,South,178,1.0,9.0,49,0.00,,,0.00,555.00,VWS V14.01,2013-05-05 21:12:00,
2013-05-05 17:17:00,66.0,46.8,30.10,SSE,168,2.0,6.0,50,0.00,,,0.00,550.00,VWS V14.01,2013-05-05 21:17:00,
2013-05-05 17:22:00,65.8,45.6,30.10,SSE,155,3.0,12.0,48,0.00,,,0.00,538.00,VWS V14.01,2013-05-05 21:22:00,
2013-05-05 17:27:00,65.4,45.8,30.10,SE,140,3.0,8.0,49,0.00,,,0.00,520.00,VWS V14.01,2013-05-05 21:27:00,
2013-05-05 17:33:00,65.2,46.1,30.10,SE,144,7.0,11.0,50,0.00,,,0.00,508.00,VWS V14.01,2013-05-05 21:33:00,
2013-05-05 17:38:00,65.0,45.9,30.10,SE,130,5.0,11.0,50,0.00,,,0.00,489.00,VWS V14.01,2013-05-05 21:38:00,
2013-05-05 17:43:00,64.7,44.6,30.10,SE,142,7.0,13.0,48,0.00,,,0.00,464.00,VWS V14.01,2013-05-05 21:43:00,
2013-05-05 17:48:00,64.4,45.4,30.10,SSE,150,2.0,7.0,50,0.00,,,0.00,452.00,VWS V14.01,2013-05-05 21:48:00,
2013-05-05 17:53:00,64.3,44.2,30.10,SSE,149,3.0,8.0,48,0.00,,,0.00,436.00,VWS V14.01,2013-05-05 21:53:00,
2013-05-05 17:58:00,64.3,44.8,30.10,ESE,123,3.0,8.0,49,0.00,,,0.00,417.00,VWS V14.01,2013-05-05 21:58:00,
2013-05-05 18:03:00,64.2,45.7,30.10,SSE,154,3.0,9.0,51,0.00,,,0.00,401.00,VWS V14.01,2013-05-05 22:03:00,
2013-05-05 18:08:00,64.2,45.2,30.10,SE,144,1.0,5.0,50,0.00,,,0.00,381.00,VWS V14.01,2013-05-05 22:08:00,
2013-05-05 18:13:00,64.1,44.6,30.10,SSE,151,4.0,9.0,49,0.00,,,0.00,357.00,VWS V14.01,2013-05-05 22:13:00,
2013-05-05 18:18:00,63.9,44.9,30.10,SE,127,7.0,12.0,50,0.00,,,0.00,325.00,VWS V14.01,2013-05-05 22:18:00,
2013-05-05 18:23:00,63.7,44.7,30.10,South,190,6.0,7.0,50,0.00,,,0.00,302.00,VWS V14.01,2013-05-05 22:23:00,
2013-05-05 18:29:00,63.5,44.0,30.11,SE,145,3.0,9.0,49,0.00,,,0.00,288.00,VWS V14.01,2013-05-05 22:29:00,
2013-05-05 18:34:00,63.2,43.7,30.11,SSE,150,3.0,10.0,49,0.00,,,0.00,251.00,VWS V14.01,2013-05-05 22:34:00,
2013-05-05 18:39:00,62.9,43.5,30.11,SSE,153,1.0,10.0,49,0.00,,,0.00,250.00,VWS V14.01,2013-05-05 22:39:00,
2013-05-05 18:44:00,62.6,43.7,30.11,South,175,1.0,9.0,50,0.00,,,0.00,207.00,VWS V14.01,2013-05-05 22:44:00,
2013-05-05 18:49:00,62.4,43.5,30.11,SSE,160,8.0,11.0,50,0.00,,,0.00,151.00,VWS V14.01,2013-05-05 22:49:00,
2013-05-05 18:54:00,62.0,43.2,30.11,South,182,0.0,10.0,50,0.00,,,0.00,123.00,VWS V14.01,2013-05-05 22:54:00,
2013-05-05 18:59:00,61.6,43.8,30.11,SSE,165,3.0,8.0,52,0.00,,,0.00,197.00,VWS V14.01,2013-05-05 22:59:00,
2013-05-05 19:04:00,61.4,43.6,30.11,South,169,0.0,7.0,52,0.00,,,0.00,107.00,VWS V14.01,2013-05-05 23:04:00,
2013-05-05 19:09:00,61.1,43.9,30.11,SSE,163,3.0,8.0,53,0.00,,,0.00,104.00,VWS V14.01,2013-05-05 23:09:00,
2013-05-05 19:14:00,60.8,44.1,30.11,SSE,165,0.0,7.0,54,0.00,,,0.00,135.00,VWS V14.01,2013-05-05 23:14:00,
2013-05-05 19:19:00,60.7,44.0,30.11,SSW,194,7.0,8.0,54,0.00,,,0.00,116.00,VWS V14.01,2013-05-05 23:19:00,
2013-05-05 19:24:00,60.4,44.2,30.12,SSW,193,1.0,7.0,55,0.00,,,0.00,70.00,VWS V14.01,2013-05-05 23:24:00,
2013-05-05 19:30:00,60.1,43.4,30.12,South,188,2.0,6.0,54,0.00,,,0.00,46.00,VWS V14.01,2013-05-05 23:30:00,
2013-05-05 19:35:00,59.8,43.1,30.12,SE,133,1.0,6.0,54,0.00,,,0.00,42.00,VWS V14.01,2013-05-05 23:35:00,
2013-05-05 19:40:00,59.5,43.3,30.12,SE,142,0.0,4.0,55,0.00,,,0.00,39.00,VWS V14.01,2013-05-05 23:40:00,
2013-05-05 19:45:00,59.1,43.4,30.12,SSE,164,2.0,7.0,56,0.00,,,0.00,21.00,VWS V14.01,2013-05-05 23:45:00,
2013-05-05 19:50:00,59.0,43.8,30.12,SSE,147,0.0,5.0,57,0.00,,,0.00,14.00,VWS V14.01,2013-05-05 23:50:00,
2013-05-05 19:55:00,58.7,43.5,30.12,SSE,150,0.0,4.0,57,0.00,,,0.00,11.00,VWS V14.01,2013-05-05 23:55:00,
2013-05-05 20:00:00,58.3,43.6,30.12,ESE,123,0.0,4.0,58,0.00,,,0.00,7.00,VWS V14.01,2013-05-06 00:00:00,
2013-05-05 20:05:00,58.0,43.3,30.13,South,171,0.0,6.0,58,0.00,,,0.00,0.00,VWS V14.01,2013-05-06 00:05:00,
2013-05-05 20:10:00,57.6,43.4,30.13,SE,141,0.0,5.0,59,0.00,,,0.00,0.00,VWS V14.01,2013-05-06 00:10:00,
2013-05-05 20:15:00,57.2,43.5,30.13,South,177,0.0,5.0,60,0.00,,,0.00,0.00,VWS V14.01,2013-05-06 00:15:00,
2013-05-05 20:20:00,56.9,43.6,30.13,SSE,165,0.0,2.0,61,0.00,,,0.00,0.00,VWS V14.01,2013-05-06 00:20:00,
2013-05-05 20:25:00,56.7,43.4,30.13,SSE,161,2.0,2.0,61,0.00,,,0.00,0.00,VWS V14.01,2013-05-06 00:25:00,
2013-05-05 20:30:00,56.4,43.6,30.13,SSE,159,0.0,3.0,62,0.00,,,0.00,0.00,VWS V14.01,2013-05-06 00:30:00,
2013-05-05 20:35:00,56.2,43.4,30.12,SE,141,0.0,0.0,62,0.00,,,0.00,0.00,VWS V14.01,2013-05-06 00:35:00,
2013-05-05 20:40:00,55.9,43.5,30.12,ESE,122,0.0,0.0,63,0.00,,,0.00,0.00,VWS V14.01,2013-05-06 00:40:00,
2013-05-05 20:45:00,55.7,43.3,30.12,SSE,160,0.0,0.0,63,0.00,,,0.00,0.00,VWS V14.01,2013-05-06 00:45:00,
2013-05-05 20:51:00,55.4,43.0,30.12,SSE,160,0.0,0.0,63,0.00,,,0.00,0.00,VWS V14.01,2013-05-06 00:51:00,
2013-05-05 20:56:00,55.2,43.2,30.13,SSE,152,0.0,2.0,64,0.00,,,0.00,0.00,VWS V14.01,2013-05-06 00:56:00,
2013-05-05 21:01:00,55.0,43.1,30.13,SSE,153,0.0,2.0,64,0.00,,,0.00,0.00,VWS V14.01,2013-05-06 01:01:00,
2013-05-05 21:06:00,54.8,43.3,30.13,SSE,152,0.0,0.0,65,0.00,,,0.00,0.00,VWS V14.01,2013-05-06 01:06:00,
2013-05-05 21:11:00,54.6,43.1,30.13,SSE,153,0.0,0.0,65,0.00,,,0.00,0.00,VWS V14.01,2013-05-06 01:11:00,
2013-05-05 21:16:00,54.4,43.3,30.13,South,185,0.0,0.0,66,0.00,,,0.00,0.00,VWS V14.01,2013-05-06 01:16:00,
2013-05-05 21:21:00,54.1,43.0,30.14,South,185,0.0,0.0,66,0.00,,,0.00,0.00,VWS V14.01,2013-05-06 01:21:00,
2013-05-05 21:26:00,53.9,43.2,30.14,South,186,0.0,0.0,67,0.00,,,0.00,0.00,VWS V14.01,2013-05-06 01:26:00,
2013-05-05 21:31:00,53.7,43.0,30.14,South,186,0.0,0.0,67,0.00,,,0.00,0.00,VWS V14.01,2013-05-06 01:31:00,
2013-05-05 21:36:00,53.5,43.2,30.14,South,186,0.0,0.0,68,0.00,,,0.00,0.00,VWS V14.01,2013-05-06 01:36:00,
2013-05-05 21:42:00,53.2,43.3,30.14,South,186,0.0,0.0,69,0.00,,,0.00,0.00,VWS V14.01,2013-05-06 01:42:00,
2013-05-05 21:47:00,52.9,43.0,30.14,South,186,0.0,0.0,69,0.00,,,0.00,0.00,VWS V14.01,2013-05-06 01:47:00,
2013-05-05 21:52:00,52.7,43.2,30.13,South,186,0.0,0.0,70,0.00,,,0.00,0.00,VWS V14.01,2013-05-06 01:52:00,
2013-05-05 21:57:00,52.5,43.4,30.14,South,186,0.0,0.0,71,0.00,,,0.00,0.00,VWS V14.01,2013-05-06 01:57:00,
2013-05-05 22:02:00,52.3,43.2,30.14,South,186,0.0,0.0,71,0.00,,,0.00,0.00,VWS V14.01,2013-05-06 02:02:00,
2013-05-05 22:07:00,52.1,43.0,30.14,South,191,0.0,1.0,71,0.00,,,0.00,0.00,VWS V14.01,2013-05-06 02:07:00,
2013-05-05 22:12:00,51.8,43.1,30.14,NW,325,0.0,0.0,72,0.00,,,0.00,0.00,VWS V14.01,2013-05-06 02:12:00,
2013-05-05 22:17:00,51.6,43.2,30.14,NW,325,0.0,0.0,73,0.00,,,0.00,0.00,VWS V14.01,2013-05-06 02:17:00,
2013-05-05 22:22:00,51.4,43.0,30.14,NW,325,0.0,0.0,73,0.00,,,0.00,0.00,VWS V14.01,2013-05-06 02:22:00,
2013-05-05 22:27:00,51.2,43.2,30.14,NW,325,0.0,0.0,74,0.00,,,0.00,0.00,VWS V14.01,2013-05-06 02:27:00,
2013-05-05 22:33:00,51.2,43.2,30.14,NW,325,0.0,0.0,74,0.00,,,0.00,0.00,VWS V14.01,2013-05-06 02:33:00,
2013-05-05 22:38:00,51.1,43.1,30.14,NW,325,0.0,0.0,74,0.00,,,0.00,0.00,VWS V14.01,2013-05-06 02:38:00,
2013-05-05 22:43:00,51.0,43.0,30.14,NW,325,0.0,1.0,74,0.00,,,0.00,0.00,VWS V14.01,2013-05-06 02:43:00,
2013-05-05 22:48:00,50.9,42.9,30.14,NW,325,0.0,0.0,74,0.00,,,0.00,0.00,VWS V14.01,2013-05-06 02:48:00,
2013-05-05 22:53:00,50.8,43.2,30.14,NW,325,0.0,0.0,75,0.00,,,0.00,0.00,VWS V14.01,2013-05-06 02:53:00,
2013-05-05 22:58:00,50.7,43.1,30.14,NW,325,0.0,0.0,75,0.00,,,0.00,0.00,VWS V14.01,2013-05-06 02:58:00,
2013-05-05 23:03:00,50.5,42.9,30.14,NW,325,0.0,0.0,75,0.00,,,0.00,0.00,VWS V14.01,2013-05-06 03:03:00,
2013-05-05 23:08:00,50.4,43.1,30.14,NW,325,0.0,0.0,76,0.00,,,0.00,0.00,VWS V14.01,2013-05-06 03:08:00,
2013-05-05 23:13:00,50.2,42.9,30.14,NW,325,0.0,0.0,76,0.00,,,0.00,0.00,VWS V14.01,2013-05-06 03:13:00,
2013-05-05 23:18:00,50.0,42.7,30.15,NW,325,0.0,0.0,76,0.00,,,0.00,0.00,VWS V14.01,2013-05-06 03:18:00,
2013-05-05 23:23:00,49.8,42.5,30.15,SE,146,0.0,5.0,76,0.00,,,0.00,0.00,VWS V14.01,2013-05-06 03:23:00,
2013-05-05 23:28:00,49.6,43.0,30.14,SSE,148,0.0,2.0,78,0.00,,,0.00,0.00,VWS V14.01,2013-05-06 03:28:00,
2013-05-05 23:34:00,49.4,42.8,30.14,SSE,148,0.0,0.0,78,0.00,,,0.00,0.00,VWS V14.01,2013-05-06 03:34:00,
2013-05-05 23:39:00,49.2,42.6,30.15,SSE,147,0.0,0.0,78,0.00,,,0.00,0.00,VWS V14.01,2013-05-06 03:39:00,
2013-05-05 23:44:00,49.0,42.5,30.14,SSE,147,0.0,0.0,78,0.00,,,0.00,0.00,VWS V14.01,2013-05-06 03:44:00,
2013-05-05 23:49:00,48.8,42.6,30.14,SSE,147,0.0,0.0,79,0.00,,,0.00,0.00,VWS V14.01,2013-05-06 03:49:00,
2013-05-05 23:54:00,48.7,42.8,30.15,SSE,147,0.0,0.0,80,0.00,,,0.00,0.00,VWS V14.01,2013-05-06 03:54:00,
2013-05-05 23:59:00,48.5,42.6,30.15,SE,146,0.0,0.0,80,0.00,,,0.00,0.00,VWS V14.01,2013-05-06 03:59:00,